COSMOS 2084

Last updated on Wed Sep 17 2025 00:02:14 GMT+0000 (Coordinated Universal Time)

1 20663U 90055A 25259.57095233 .00002548 00000+0 19309-3 0 9996 2 20663 62.7894 208.8206 0046473 164.3107 195.9446 15.04177843910117
UTC large
Height (km)
Speed (km/s)
/
Latitude / Longitude
Inclination (degrees)
Orbital Period (minutes)
Azimuth
Elevation
Range (km)
Doppler Factor

Next 0 passes for location: London (51.5072 / 0.1276)

Sorry there are no passes over London.